Weather History for Alva, OK

Change the Weather History Date:

Friday, November 8, 2013

  Actual Average Record
Temperature  
Mean Temperature 54 °F -  
Max Temperature 68 °F 62 °F 91 °F (1980)
Min Temperature 39 °F 39 °F 19 °F (1991)
Degree Days  
Heating Degree Days 12    
Growing Degree Days 4 (Base 50)    
Moisture  
Dew Point 30 °F    
Average Humidity 45    
Maximum Humidity 81    
Minimum Humidity 21    
Precipitation  
Precipitation 0.00 in - - ()
Sea Level Pressure  
Sea Level Pressure 30.05 in    
Wind  
Wind Speed 18 mph (SSW)    
Max Wind Speed 43 mph    
Max Gust Speed 53 mph    
Visibility 10 miles    
Events      
Averages and records for this station are not official NWS values.
T = Trace of Precipitation, MM = Missing Value Source: NWS Daily Summary

Daily Weather History Graph

Daily Weather History Graph

Search for Another Location

Airport:

Trip Planner

Search our weather history database for the weather conditions in past years. The results will help you decide how hot, cold, wet, or windy it might be!

Date:

Astronomy

Nov. 08, 2013 Rise Set
Actual Time 7:05 AM CST 5:30 PM CST
Civil Twilight 6:38 AM CST 5:57 PM CST
Nautical Twilight 6:07 AM CST 6:28 PM CST
Astronomical Twilight 5:37 AM CST 6:59 PM CST
Moon 12:02 PM CST (11/8) 10:52 PM CST (11/8)
Length of Visible Light 11h 19m
Length of Day
10h 24m
Waxing Crescent, 33% of the Moon is Illuminated
Nov 8
Waxing Crescent
Nov 9
First Quarter
Nov 17
Full
Nov 25
Last Quarter
Dec 2
New

Hourly Weather History & Observations

Time (CST) Temp. Windchill Dew Point Humidity Pressure Visibility Wind Dir Wind Speed Gust Speed Precip Events Conditions
12:05 AM 41.0 °F 35.8 °F 35.6 °F 81% 30.29 in 10.0 mi South 8.1 mph - N/A   Partly Cloudy
12:25 AM 42.8 °F 37.5 °F 33.8 °F 70% 30.28 in 10.0 mi South 9.2 mph - N/A   Scattered Clouds
12:45 AM 41.0 °F 35.2 °F 33.8 °F 76% 30.27 in 10.0 mi South 9.2 mph - N/A   Mostly Cloudy
1:05 AM 41.0 °F 34.7 °F 33.8 °F 76% 30.27 in 10.0 mi South 10.4 mph - N/A   Mostly Cloudy
1:25 AM 39.2 °F 32.0 °F 33.8 °F 81% 30.26 in 10.0 mi South 11.5 mph - N/A   Overcast
1:45 AM 41.0 °F 33.9 °F 32.0 °F 70% 30.25 in 10.0 mi South 12.7 mph - N/A   Overcast
2:05 AM 42.8 °F 35.8 °F 32.0 °F 66% 30.24 in 10.0 mi SSW 13.8 mph - N/A   Overcast
2:25 AM 42.8 °F 36.2 °F 32.0 °F 66% 30.23 in 10.0 mi SSW 12.7 mph - N/A   Overcast
2:45 AM 42.8 °F 37.5 °F 32.0 °F 66% 30.22 in 9.0 mi SSW 9.2 mph - N/A   Overcast
3:05 AM 42.8 °F 36.6 °F 32.0 °F 66% 30.21 in 10.0 mi SSW 11.5 mph - N/A   Overcast
3:25 AM 42.8 °F 37.0 °F 32.0 °F 66% 30.21 in 9.0 mi SSW 10.4 mph - N/A   Mostly Cloudy
3:45 AM 42.8 °F 36.2 °F 32.0 °F 66% 30.20 in 10.0 mi SSW 12.7 mph - N/A   Partly Cloudy
4:05 AM 42.8 °F 35.4 °F 32.0 °F 66% 30.19 in 10.0 mi SSW 15.0 mph - N/A   Clear
4:25 AM 41.0 °F 33.5 °F 32.0 °F 70% 30.18 in 10.0 mi South 13.8 mph - N/A   Clear
4:45 AM 41.0 °F 33.1 °F 32.0 °F 70% 30.17 in 10.0 mi South 15.0 mph - N/A   Clear
5:05 AM 41.0 °F 33.1 °F 32.0 °F 70% 30.17 in 10.0 mi South 15.0 mph - N/A   Clear
5:25 AM 41.0 °F 33.1 °F 32.0 °F 70% 30.16 in 10.0 mi South 15.0 mph - N/A   Clear
5:45 AM 39.2 °F 30.8 °F 32.0 °F 75% 30.16 in 10.0 mi South 15.0 mph - N/A   Clear
6:05 AM 41.0 °F 32.8 °F 32.0 °F 70% 30.16 in 10.0 mi South 16.1 mph 20.7 mph N/A   Clear
6:25 AM 42.8 °F 34.5 °F 32.0 °F 66% 30.15 in 10.0 mi South 18.4 mph - N/A   Clear
6:45 AM 41.0 °F 32.8 °F 32.0 °F 70% 30.14 in 10.0 mi South 16.1 mph - N/A   Clear
7:05 AM 41.0 °F 32.8 °F 30.2 °F 65% 30.13 in 10.0 mi South 16.1 mph - N/A   Clear
7:25 AM 41.0 °F 32.8 °F 32.0 °F 70% 30.12 in 10.0 mi South 16.1 mph - N/A   Clear
7:45 AM 42.8 °F 35.1 °F 32.0 °F 66% 30.12 in 10.0 mi South 16.1 mph - N/A   Clear
8:05 AM 44.6 °F 38.1 °F 32.0 °F 61% 30.11 in 10.0 mi South 13.8 mph - N/A   Clear
8:25 AM 48.2 °F - 32.0 °F 54% 30.11 in 10.0 mi South 18.4 mph - N/A   Clear
8:45 AM 50.0 °F - 32.0 °F 50% 30.10 in 10.0 mi SSW 21.9 mph 26.5 mph N/A   Clear
9:05 AM 53.6 °F - 30.2 °F 41% 30.10 in 10.0 mi SSW 27.6 mph 34.5 mph N/A   Clear
9:25 AM 55.4 °F - 28.4 °F 36% 30.09 in 10.0 mi SSW 26.5 mph 36.8 mph N/A   Clear
9:45 AM 57.2 °F - 28.4 °F 33% 30.08 in 10.0 mi SW 27.6 mph 34.5 mph N/A   Clear
10:10 AM 59.0 °F - 28.4 °F 31% 30.07 in 10.0 mi SSW 28.8 mph 38.0 mph N/A   Clear
10:30 AM 60.8 °F - 28.4 °F 29% 30.06 in 10.0 mi SSW 33.4 mph 40.3 mph N/A   Clear
10:45 AM 62.6 °F - 28.4 °F 27% 30.05 in 10.0 mi SSW 32.2 mph 47.2 mph N/A   Clear
11:05 AM 64.4 °F - 26.6 °F 24% 30.04 in 9.0 mi SSW 32.2 mph 48.3 mph N/A   Clear
11:25 AM 64.4 °F - 26.6 °F 24% 30.02 in 9.0 mi SSW 39.1 mph 52.9 mph N/A   Clear
11:45 AM 66.2 °F - 26.6 °F 23% 30.01 in 10.0 mi SSW 35.7 mph 48.3 mph N/A   Clear
12:05 PM 66.2 °F - 28.4 °F 24% 30.01 in 10.0 mi SSW 36.8 mph 50.6 mph N/A   Clear
12:25 PM 66.2 °F - 28.4 °F 24% 29.99 in 10.0 mi SSW 35.7 mph 44.9 mph N/A   Clear
12:45 PM 68.0 °F - 26.6 °F 21% 29.97 in 10.0 mi SSW 35.7 mph 49.5 mph N/A   Clear
1:05 PM 68.0 °F - 28.4 °F 23% 29.96 in 10.0 mi SSW 31.1 mph 44.9 mph N/A   Clear
1:25 PM 68.0 °F - 28.4 °F 23% 29.95 in 10.0 mi SSW 42.6 mph 47.2 mph N/A   Clear
1:50 PM 68.0 °F - 28.4 °F 23% 29.94 in 10.0 mi SSW 39.1 mph 48.3 mph N/A   Clear
2:05 PM 68.0 °F - 28.4 °F 23% 29.94 in 10.0 mi SSW 35.7 mph 46.0 mph N/A   Clear
2:25 PM 68.0 °F - 30.2 °F 24% 29.94 in 10.0 mi SSW 35.7 mph 42.6 mph N/A   Clear
2:45 PM 66.2 °F - 32.0 °F 28% 29.93 in 10.0 mi SSW 36.8 mph 44.9 mph N/A   Clear
3:05 PM 66.2 °F - 32.0 °F 28% 29.93 in 10.0 mi SSW 32.2 mph 41.4 mph N/A   Clear
3:25 PM 66.2 °F - 30.2 °F 26% 29.92 in 10.0 mi SSW 31.1 mph 43.7 mph N/A   Clear
3:45 PM 66.2 °F - 30.2 °F 26% 29.91 in 10.0 mi SSW 35.7 mph 46.0 mph N/A   Clear
4:05 PM 66.2 °F - 30.2 °F 26% 29.92 in 10.0 mi SSW 32.2 mph 42.6 mph N/A   Clear
4:25 PM 64.4 °F - 30.2 °F 28% 29.91 in 10.0 mi SSW 29.9 mph 41.4 mph N/A   Clear
4:45 PM 64.4 °F - 30.2 °F 28% 29.90 in 10.0 mi South 24.2 mph 28.8 mph N/A   Clear
5:10 PM 62.6 °F - 28.4 °F 27% 29.90 in 10.0 mi South 24.2 mph 40.3 mph N/A   Clear
5:25 PM 62.6 °F - 28.4 °F 27% 29.89 in 10.0 mi SSW 31.1 mph 38.0 mph N/A   Clear
5:45 PM 59.0 °F - 28.4 °F 31% 29.91 in 10.0 mi SSW 24.2 mph 28.8 mph N/A   Clear
6:05 PM 59.0 °F - 28.4 °F 31% 29.93 in 10.0 mi SSW 19.6 mph 24.2 mph N/A   Clear
6:25 PM 57.2 °F - 28.4 °F 33% 29.93 in 10.0 mi South 15.0 mph - N/A   Clear
6:45 PM 57.2 °F - 28.4 °F 33% 29.92 in 10.0 mi South 24.2 mph 28.8 mph N/A   Clear
7:10 PM 57.2 °F - 26.6 °F 31% 29.93 in 10.0 mi South 21.9 mph 27.6 mph N/A   Clear
7:25 PM 57.2 °F - 28.4 °F 33% 29.93 in 10.0 mi SSW 18.4 mph - N/A   Clear
7:45 PM 55.4 °F - 28.4 °F 36% 29.94 in 10.0 mi SSW 17.3 mph - N/A   Clear
8:05 PM 55.4 °F - 28.4 °F 36% 29.95 in 10.0 mi SSW 16.1 mph - N/A   Clear
8:25 PM 55.4 °F - 28.4 °F 36% 29.95 in 10.0 mi South 19.6 mph - N/A   Clear
8:45 PM 55.4 °F - 26.6 °F 33% 29.95 in 10.0 mi South 17.3 mph 25.3 mph N/A   Partly Cloudy
9:05 PM 55.4 °F - 26.6 °F 33% 29.96 in 10.0 mi SSW 17.3 mph 23.0 mph N/A   Scattered Clouds
9:25 PM 53.6 °F - 28.4 °F 38% 29.96 in 10.0 mi South 16.1 mph - N/A   Scattered Clouds
9:45 PM 53.6 °F - 28.4 °F 38% 29.96 in 10.0 mi SSW 17.3 mph - N/A   Mostly Cloudy
10:05 PM 53.6 °F - 30.2 °F 41% 29.97 in 10.0 mi SSW 17.3 mph - N/A   Mostly Cloudy
10:30 PM 51.8 °F - 32.0 °F 47% 29.96 in 10.0 mi SSW 16.1 mph - N/A   Mostly Cloudy
10:50 PM 51.8 °F - 32.0 °F 47% 29.97 in 10.0 mi SSW 16.1 mph - N/A   Overcast
11:10 PM 51.8 °F - 32.0 °F 47% 29.97 in 10.0 mi South 16.1 mph - N/A   Mostly Cloudy
11:30 PM 51.8 °F - 33.8 °F 50% 29.97 in 10.0 mi South 16.1 mph - N/A   Mostly Cloudy
11:50 PM 50.0 °F - 35.6 °F 58% 29.97 in 10.0 mi SSW 15.0 mph - N/A   Mostly Cloudy